Regional Weather Roundup
Issued by NWS

Home | Current Version | Previous Version | Text Only | Print | Product List | Glossary Off
Versions: 1 2 3 4 5 6 7 8 9 10 11 12 13 14 15 16 17 18 19 20 21 22 23 24 25 26 27 28 29 30 31 32 33 34 35 36 37 38 39 40 41 42 43 44 45 46 47 48 49 50

000
ASUS43 KMKX 131610
RWRWI

WISCONSIN REGIONAL WEATHER ROUNDUP
NATIONAL WEATHER SERVICE MILWAUKEE/SULLIVAN WI
1000 AM CST WED DEC 13 2017

NOTE: "FAIR" INDICATES FEW OR NO CLOUDS BELOW 12,000 FEET WITH NO
SIGNIFICANT WEATHER AND/OR OBSTRUCTIONS TO VISIBILITY.

WIZ001-002-006>008-014>016-023>028-131700-
NORTHWEST WISCONSIN

CITY           SKY/WX    TMP DP  RH WIND       PRES   REMARKS
SUPERIOR ARPT  CLOUDY    21  18  88 SE3       29.55R
ASHLAND        LGT SNOW  17  13  84 NE9       29.54R FOG     WCI   6
HAYWARD        LGT SNOW  17  12  80 NE7       29.47R WCI   8
SIREN          CLOUDY    19  15  85 N6        29.51R WCI  11
CUMBERLAND     CLOUDY    21  16  79 N7        29.43R HAZE    WCI  13
RICE LAKE      FLURRIES  21  18  88 CALM      29.45R
CHETEK           N/A     20  18  89 NE3       29.44R
LADYSMITH      LGT SNOW  17  14  85 E9        29.46R VSB 3/4 WCI   6
EAU CLAIRE     SNOW      20  18  92 NE6       29.42R VSB 1/4 WCI  12
MENOMONIE      LGT SNOW  22  20  91 N8        29.43R WCI  13
NEW RICHMOND   CLOUDY    22  18  84 N9        29.47R WCI  12
OSCEOLA        CLOUDY    23  19  84 N10G17    29.52R WCI  12
$$

WIZ003>005-009-010-017-018-131700-
NORTH CENTRAL WISCONSIN

CITY           SKY/WX    TMP DP  RH WIND       PRES   REMARKS
MANITOWISH WTR LGT SNOW  11   9  89 E9        29.46S VSB 3/4 WCI  -2
ARBOR VITAE    LGT SNOW  14  10  85 E7        29.46R VSB 3/4 WCI   4
WOODRUFF       LGT SNOW  14  10  85 E7        29.46R VSB 3/4 WCI   4
RHINELANDER    SNOW      13  10  88 E9        29.44S VSB 1/4 WCI   1
EAGLE RIVER    SNOW      11   7  83 E7        29.46R VSB 1/2 WCI   1
LAND O LAKES   SNOW      12   8  85 E7        29.50S VSB 1/2 WCI   1
PHILLIPS       LGT SNOW  12   9  88 E7        29.43S VSB 3/4 WCI   2
TOMAHAWK       SNOW      12   9  87 NE3       29.45R VSB 1/4
MEDFORD        LGT SNOW  14  11  86 NE10      29.40R VSB 3/4 WCI   2
MERRILL        LGT SNOW  14  11  88 E7        29.43S VSB 3/4 WCI   4
$$

WIZ029-030-035-036-043>047-131700-
CENTRAL WISCONSIN

CITY           SKY/WX    TMP DP  RH WIND       PRES   REMARKS
WAUSAU         CLOUDY    16  12  84 E7        29.40R WCI   6
MOSINEE        CLOUDY    18  16  93 E13       29.40S FOG     WCI   4
MARSHFIELD     CLOUDY    18  14  84 E10       29.38R WCI   6
STEVENS POINT  CLOUDY    17  16  94 NE8       29.39F WCI   7
WAUPACA        CLOUDY    23  19  83 NE3       29.41F
WAUTOMA        CLOUDY    21  17  84 NE10      29.38F WCI  10
WISC RAPIDS    CLOUDY    18  14  84 E12G17    29.37F WCI   5
CAMP DOUGLAS   CLOUDY    25  18  74 E8        29.31F WCI  16
$$

WIZ011>013-019>022-031-037>040-048>050-131700-
NORTHEAST WISCONSIN

CITY           SKY/WX    TMP DP  RH WIND       PRES   REMARKS
ANTIGO         LGT SNOW  15  12  88 E12       29.41S VSB 3/4 WCI   1
SHAWANO        LGT SNOW  22  19  88 NE8       29.44F WCI  13
OCONTO         CLOUDY    26  24  93 E12G17    29.47F VSB 1/2 WCI  15
STURGEON BAY   SNOW      26  24  92 E15       29.50F VSB 1/2 WCI  14
GREEN BAY      LGT SNOW  27  24  89 E8        29.44F FOG     WCI  19
MANITOWOC      MIX PCPN  31  28  89 SE15G23   29.45F WCI  20
APPLETON       PTSUNNY   25  19  80 E8        29.40F WCI  16
CLINTONVILLE   NOT AVBL
OSHKOSH        CLOUDY    24  19  81 SE12      29.38F WCI  13
$$

WIZ032>034-041-042-053>061-131700-
SOUTHWEST WISCONSIN

CITY           SKY/WX    TMP DP  RH WIND       PRES   REMARKS
LA CROSSE      CLOUDY    31  22  69 NE6       29.34R WCI  25
SPARTA         CLOUDY    27  20  76 E7        29.34S WCI  19
VIROQUA        CLOUDY    28  24  86 E3        29.29F
BOSCOBEL       CLOUDY    33  23  66 CALM      29.33S
PRAIRIE DU CHI CLOUDY    33  24  68 CALM      29.31S
PLATTEVILLE    MOSUNNY   32  26  77 SW10      29.31F WCI  24
$$

WIZ056-057-062-063-064-067-068-131700-
SOUTH CENTRAL WISCONSIN

CITY           SKY/WX    TMP DP  RH WIND       PRES   REMARKS
REEDSBURG      CLOUDY    28  19  69 CALM      29.33S
BARABOO/DELLS  CLOUDY    29  19  67 CALM      29.33F
LONE ROCK      CLOUDY    30  22  72 CALM      29.33F
MINERAL POINT  CLOUDY    32  27  80 SW12      29.31R WCI  23
MADISON        FLURRIES  29  20  69 S9        29.33F WCI  20
MIDDLETON      CLOUDY    31  22  68 S10       29.33F WCI  22
WATERTOWN      CLOUDY    28  20  71 S9G18     29.36F WCI  20
MONROE         CLOUDY    30  21  69 S17G23    29.31F WCI  18
JANESVILLE     CLOUDY    32  19  59 S14G22    29.33F WCI  22
$$

WIZ051-052-058>065-066-070>072-131700-
SOUTHEAST WISCONSIN

CITY           SKY/WX    TMP DP  RH WIND       PRES   REMARKS
MILWAUKEE      CLOUDY    31  20  63 S12       29.39F WCI  22
WAUKESHA       MOSUNNY   27  18  69 S9        29.39F WCI  17
MILWAUKEE/TIMM MOSUNNY   28  16  59 S10G17    29.40F WCI  19
RACINE         CLOUDY    31  19  61 S15G26    29.40F WCI  20
BURLINGTON       N/A    N/A N/A N/A MISG        N/A
KENOSHA        CLOUDY    31  18  58 S14       29.38F WCI  21
FOND DU LAC    CLOUDY    25  17  72 E9        29.40F WCI  15
SHEBOYGAN      CLOUDY    31  26  82 SE10      29.42F WCI  22
WEST BEND      CLOUDY    27  19  74 SE3       29.39F
JUNEAU         CLOUDY    27  19  74 CALM      29.38F
$$

LSZ147-162-131700-
LAKE SUPERIOR

STATION/POSITION TIME  TEMP    WIND        PRES    WAVE
                       AIR SEA DIR/SP/G            HT/PER
                 (UTC) (F)     (DEG/KT/KT) (MB)    (FT/S)
DEVILS ISLAND    1600   21      90/ 24/ 27 1002.6R
SAXON HARBOR     1540   17                 1000.3R
$$

LMZ867-665-643>646-131700-
LAKE MICHIGAN

STATION/POSITION TIME  TEMP    WIND        PRES    WAVE
                       AIR SEA DIR/SP/G            HT/PER
                 (UTC) (F)     (DEG/KT/KT) (MB)    (FT/S)
NORTHPORT PIER   1544   25     120/ 20/ 25 1001.4F
KEWAUNEE LAKESHO 1548   28     110/ 21/ 26  998.0F
SHEBOYGAN LAKESH 1600   33     150/ 22/ 26  997.1F
PORT WASHINGTON  1530   33     180/ 15/ 24  997.3F
MILWAUKEE LAKESH 1550   31     190/ 15/ 17   N/A
KENOSHA   LAKESH 1600   31     190/ 13/ 21  995.6
$$

TC  - TEMPERATURE IN CELSIUS
VSB - VISIBILITY IN STATUTE MILES
WCI - WIND CHILL INDEX
HX  - HEAT INDEX





USA.gov is the U.S. government's official web portal to all federal, state and local government web resources and services.